This demonstration page uses our WeatherBlox Daily Observations layout. Learn more.

Left ArrowRight Arrow

Hourly Observations for February 10, 2019

Temp ( °F °C ) Dew Point ( °F °C ) Humidity (%) Winds ( mph kmh ) Pressure ( in mb ) Visibility ( mi km ) Precip ( " mm )
12:53 am 00:53 Clear 45 7.2 16 -8.9 31 31 E 10 17 30.54 1034 10 16 0.00 0.00
1:53 am 01:53 Clear 45 7.2 17 -8.3 33 33 E 9 15 30.56 1035 10 16 0.00 0.00
2:53 am 02:53 Clear 43 6.1 18 -7.8 37 37 E 7 11 30.52 1034 10 16 0.00 0.00
3:53 am 03:53 Clear 43 6.1 19 -7.2 38 38 E 8 13 30.52 1033 10 16 0.00 0.00
4:53 am 04:53 Cloudy 43 6.1 19 -7.2 38 38 E 12 19 30.53 1034 10 16 0.00 0.00
5:29 am 05:29 Cloudy 43 6.1 20 -6.7 40 40 ENE 12 19 30.55 1035 10 16 0.00 0.00
5:53 am 05:53 Cloudy 43 6.1 20 -6.7 40 40 E 14 22 30.52 1034 10 16 0.00 0.00
6:53 am 06:53 Cloudy 43 6.1 20 -6.7 40 40 E 13 20 30.52 1033 10 16 0.00 0.00
7:53 am 07:53 Cloudy with Light Rain 42 5.6 23 -5 47 47 ENE 12 19 30.53 1034 10 16 0.00 0.03
8:53 am 08:53 Cloudy with Light Rain 40 4.4 29 -1.7 65 65 E 10 17 30.55 1035 10 16 0.00 0.03
9:53 am 09:53 Cloudy 38 3.3 34 1.1 86 86 ENE 9 15 30.55 1034 10 16 0.00 0.03
10:53 am 10:53 Cloudy 38 3.3 34 1.1 86 86 E 12 19 30.53 1034 10 16 0.00 0.03
11:53 am 11:53 Cloudy 39 3.9 33 0.6 79 79 E 7 11 30.53 1034 10 16 0.00 0.00
12:53 pm 12:53 Cloudy 39 3.9 33 0.6 79 79 E 13 20 30.48 1032 10 16 0.00 0.00
1:53 pm 13:53 Cloudy 40 4.4 34 1.1 79 79 E 8 13 30.45 1031 10 16 0.00 0.00
2:53 pm 14:53 Cloudy 40 4.4 34 1.1 79 79 ENE 10 17 30.42 1030 10 16 0.00 0.00
3:53 pm 15:53 Cloudy 41 5 34 1.1 76 76 ESE 7 11 30.41 1030 10 16 0.00 0.00
4:53 pm 16:53 Cloudy 41 5 35 1.7 79 79 ENE 8 13 30.40 1030 10 16 0.00 0.00
5:53 pm 17:53 Cloudy 40 4.4 35 1.7 83 83 E 8 13 30.40 1029 10 16 0.00 0.00
6:03 pm 18:03 Cloudy 40 4.4 35 1.7 83 83 E 9 15 30.41 1030 10 16 0.00 0.00
6:53 pm 18:53 Cloudy 40 4.4 36 2.2 86 86 E 5 7 30.38 1029 10 16 0.00 0.00
7:51 pm 19:51 Cloudy 39 4 36 2 87 87 ESE 7 11 30.40 1030 10 16 0.00 0.00
7:53 pm 19:53 Cloudy 40 4.4 36 2.2 86 86 ESE 7 11 30.38 1029 10 16 0.00 0.00
8:53 pm 20:53 Cloudy with Light Rain 39 3.9 38 3.3 96 96 VRB 3 6 30.39 1029 7 11 0.00 0.03
9:40 pm 21:40 Cloudy with Light Rain 39 3.9 38 3.3 96 96 ENE 8 13 30.39 1029 3 5 0.01 0.25
9:53 pm 21:53 Cloudy with Light Rain 38 3.3 38 3.3 100 100 ENE 8 13 30.37 1028 3 5 0.02 0.51
10:53 pm 22:53 Cloudy with Light Rain 38 3.3 38 3.3 100 100 ENE 8 13 30.35 1028 3 5 0.08 2.03
11:53 pm 23:53 Cloudy 38 3.3 38 3.3 100 100 ENE 5 7 30.33 1027 10 16 0.00 0.03

Powered by AerisWeather